EW6618 Weather Reports


Display with metric or nautical units.
time (UTC)temp
F
wind
direction
speed
MPH
gust
MPH
rain 1hr
in
rain 24hr
in
rain mn
in
humidity
%
barometer
mb
20260902111526 65 86 1.0 2.0 0.00 0.00 0.00 84 1015.8
20260902110519 65 82 1.0 2.0 0.00 0.00 0.00 84 1015.8
20260902105525 65 79 1.0 2.0 0.00 0.00 0.00 84 1015.8
20260902104535 65 72 1.0 3.0 0.00 0.00 0.00 84 1015.7
20260902103540 65 79 1.0 3.0 0.00 0.00 0.00 84 1015.7
20260902102559 66 73 1.0 4.0 0.00 0.00 0.00 84 1015.7
20260902094144 68 232 1.0 6.0 0.00 0.00 0.00 83 1016.0
20260902093123 68 258 3.0 6.0 0.00 0.00 0.00 84 1015.9
20260902092053 68 238 4.0 6.0 0.00 0.00 0.00 84 1015.9
20260902091053 68 254 4.0 7.0 0.00 0.00 0.00 84 1015.9
20260902090100 68 281 4.0 7.0 0.00 0.00 0.00 84 1015.9
20260902085030 68 261 4.0 8.0 0.00 0.00 0.00 83 1015.9
20260902084011 68 250 5.0 8.0 0.00 0.00 0.00 83 1016.0
20260902082937 68 248 5.0 9.0 0.00 0.00 0.00 83 1016.0
20260902075708 68 249 7.0 14.0 0.00 0.00 0.00 83 1016.0
20260902074718 68 299 7.0 12.0 0.00 0.00 0.00 83 1016.0
20260902073738 68 206 7.0 12.0 0.00 0.00 0.00 83 1016.0
20260902071636 68 274 6.0 11.0 0.00 0.00 0.00 84 1015.7
20260902070620 69 209 6.0 10.0 0.00 0.00 0.00 84 1015.6
20260902065554 69 220 6.0 10.0 0.00 0.00 0.00 82 1015.6
20260902064615 69 257 6.0 10.0 0.00 0.00 0.00 82 1015.5
20260902063625 68 205 4.0 9.0 0.00 0.00 0.00 82 1015.5
20260902062616 69 39 6.0 11.0 0.00 0.00 0.00 81 1015.5
20260902055440 69 310 6.0 10.0 0.00 0.00 0.00 82 1015.4
20260902054431 69 271 6.0 9.0 0.00 0.00 0.00 81 1015.3
20260902052219 69 83 7.0 11.0 0.00 0.00 0.00 81 1015.4
20260902050048 69 317 7.0 11.0 0.00 0.00 0.00 80 1015.3
20260902045052 70 227 7.0 11.0 0.00 0.00 0.00 80 1015.3
20260902044021 70 195 8.0 13.0 0.00 0.00 0.00 80 1015.1
20260902043014 70 276 8.0 13.0 0.00 0.00 0.00 79 1015.0
20260902040848 70 263 8.0 13.0 0.00 0.00 0.00 78 1014.8
20260902035823 70 288 8.0 13.0 0.00 0.00 0.00 77 1014.6
20260902034755 69 263 7.0 9.0 0.00 0.00 0.00 76 1014.5
20260902033736 69 245 7.0 11.0 0.00 0.00 0.00 77 1014.4
20260902032716 70 8 7.0 13.0 0.00 0.00 0.00 78 1014.2
20260902031700 70 249 8.0 12.0 0.00 0.00 0.00 77 1014.2
20260902030713 69 278 8.0 13.0 0.00 0.00 0.00 75 1014.2
20260902025647 69 288 8.0 13.0 0.00 0.00 0.00 76 1014.4
20260902024648 70 310 8.0 13.0 0.00 0.00 0.00 77 1014.3
20260902022521 70 224 7.0 11.0 0.00 0.00 0.00 77 1014.1
20260902020419 71 240 6.0 10.0 0.00 0.00 0.00 78 1014.1
20260902014301 71 258 6.0 11.0 0.00 0.00 0.00 78 1014.2
20260902013310 72 296 6.0 11.0 0.00 0.00 0.00 77 1014.0
20260902012309 72 287 6.0 11.0 0.00 0.00 0.00 76 1014.1
20260902011327 72 121 7.0 13.0 0.00 0.00 0.00 77 1014.1
20260902010321 72 221 8.0 14.0 0.00 0.00 0.00 78 1014.4
20260902005305 72 325 9.0 14.0 0.00 0.00 0.00 78 1014.4
20260902004314 72 262 8.0 13.0 0.00 0.00 0.00 77 1014.4
20260902003301 72 236 8.0 13.0 0.00 0.00 0.00 78 1014.5
20260902002246 72 276 8.0 13.0 0.00 0.00 0.00 77 1014.5
20260902001255 73 255 8.0 13.0 0.00 0.00 0.00 78 1014.6
20260902000322 72 291 9.0 15.0 0.00 0.00 0.00 78 1014.6
20260901235253 73 242 9.0 15.0 0.00 0.00 0.00 77 1014.7
20260901234243 73 301 8.0 13.0 0.00 0.00 0.00 77 1014.8
20260901233258 73 85 8.0 14.0 0.00 0.00 0.00 76 1014.7
20260901232235 73 251 8.0 15.0 0.00 0.00 0.00 77 1014.9
20260901231251 73 241 9.0 15.0 0.00 0.00 0.00 77 1014.9
20260901230256 73 324 9.0 14.0 0.00 0.00 0.00 75 1015.0
20260901225301 73 288 9.0 14.0 0.00 0.00 0.00 75 1015.0
20260901224310 74 221 8.0 13.0 0.00 0.00 0.00 76 1014.9
20260901223322 74 309 9.0 13.0 0.00 0.00 0.00 75 1014.9
20260901222340 74 266 8.0 13.0 0.00 0.00 0.00 74 1015.2
20260901221331 75 53 8.0 13.0 0.00 0.00 0.00 74 1015.1
20260901220340 75 240 8.0 13.0 0.00 0.00 0.00 72 1015.2
20260901215339 75 256 8.0 11.0 0.00 0.00 0.00 73 1015.3
20260901214312 75 278 8.0 12.0 0.00 0.00 0.00 73 1015.3
20260901212141 74 262 8.0 12.0 0.00 0.00 0.00 74 1015.6
20260901211128 74 79 8.0 12.0 0.00 0.00 0.00 73 1015.5
20260901205123 74 238 8.0 13.0 0.00 0.00 0.00 73 1015.6
20260901204129 74 226 7.0 13.0 0.00 0.00 0.00 73 1015.8
20260901203120 75 258 7.0 11.0 0.00 0.00 0.00 70 1015.9
20260901202104 76 278 6.0 9.0 0.00 0.00 0.00 71 1015.9
20260901201112 75 263 6.0 11.0 0.00 0.00 0.00 71 1016.0
20260901200121 75 240 6.0 11.0 0.00 0.00 0.00 71 1016.1
20260901195137 76 251 6.0 11.0 0.00 0.00 0.00 70 1016.1
20260901190712 76 236 4.0 11.0 0.00 0.00 0.00 69 1016.3
20260901185720 76 226 3.0 8.0 0.00 0.00 0.00 68 1016.3
20260901184649 76 68 4.0 8.0 0.00 0.00 0.00 70 1016.3
20260901183629 75 38 3.0 8.0 0.00 0.00 0.00 70 1016.4
20260901182602 75 23 3.0 6.0 0.00 0.00 0.00 71 1016.4
20260901181613 74 145 4.0 8.0 0.00 0.00 0.00 73 1016.3
20260901180541 74 265 4.0 8.0 0.00 0.00 0.00 74 1016.4
20260901175517 74 277 4.0 9.0 0.00 0.00 0.00 74 1016.4
20260901174504 74 72 4.0 9.0 0.00 0.00 0.00 75 1016.4
20260901173508 73 258 4.0 8.0 0.00 0.00 0.00 75 1016.3
20260901172525 73 56 4.0 9.0 0.00 0.00 0.00 75 1016.3
20260901171508 74 217 3.0 9.0 0.00 0.00 0.00 75 1016.2
20260901170457 74 313 2.0 6.0 0.00 0.00 0.00 75 1016.1
20260901165518 73 245 1.0 4.0 0.00 0.00 0.00 77 1016.0
20260901163410 71 131 1.0 3.0 0.00 0.00 0.00 81 1016.0
20260901162428 70 224 0.0 3.0 0.00 0.00 0.00 81 1016.1
20260901161444 70 194 0.0 4.0 0.00 0.00 0.00 81 1016.1
20260901160508 70 104 0.0 4.0 0.00 0.00 0.00 81 1016.0
20260901155442 70 219 0.0 3.0 0.00 0.00 0.00 82 1016.1
20260901153239 69 155 1.0 4.0 0.00 0.00 0.00 82 1015.9
20260901152251 69 120 1.0 6.0 0.00 0.00 0.00 83 1015.9
20260901151256 69 124 2.0 6.0 0.00 0.00 0.00 84 1015.8
20260901150235 69 108 1.0 4.0 0.00 0.00 0.00 84 1015.8
20260901145238 68 106 1.0 3.0 0.00 0.00 0.00 84 1015.7
20260901144239 68 116 1.0 3.0 0.00 0.00 0.00 85 1015.5
20260901143258 67 94 0.0 3.0 0.00 0.00 0.00 86 1015.4
20260901142243 66 93 1.0 3.0 0.00 0.00 0.00 87 1015.2
20260901141259 66 79 1.0 4.0 0.00 0.00 0.00 87 1015.0
20260901140313 66 76 1.0 4.0 0.00 0.00 0.00 86 1014.8
20260901135335 66 110 0.0 2.0 0.00 0.00 0.00 86 1014.9
20260901134328 66 100 0.0 4.0 0.00 0.00 0.00 86 1014.8
20260901133339 66 207 1.0 4.0 0.00 0.00 0.00 86 1014.8
20260901132308 66 245 1.0 4.0 0.00 0.00 0.00 86 1014.6
20260901131243 66 228 0.0 5.0 0.00 0.00 0.00 86 1014.6
20260901130226 67 146 1.0 5.0 0.00 0.00 0.00 86 1014.6
20260901125247 67 239 1.0 3.0 0.00 0.00 0.00 86 1014.5
20260901124249 67 267 0.0 2.0 0.00 0.00 0.00 86 1014.5
20260901123314 67 281 1.0 1.0 0.00 0.00 0.00 85 1014.6
20260901122314 67 258 3.0 6.0 0.00 0.00 0.00 86 1014.5
20260901121332 67 245 1.0 6.0 0.00 0.00 0.00 86 1014.4
20260901120348 67 291 1.0 6.0 0.00 0.00 0.00 86 1014.5
20260901115345 67 242 2.0 6.0 0.00 0.00 0.00 86 1014.4
20260901114342 67 264 0.0 4.0 0.00 0.00 0.00 87 1014.3
20260901113343 67 297 0.0 3.0 0.00 0.00 0.00 86 1014.4